Rayong, Thailand

4:35 PM +07 on March 23, 2017 (GMT +0700)
U-Taphao International

Weather History for VTBU - July, 2013

Change the Weather History Date:

Friday, July 19, 2013

  Actual Average Record
Temperature  
Mean Temperature 82 °F -  
Max Temperature 87 °F 89 °F 93 °F (2002)
Min Temperature 78 °F 79 °F 37 °F (2010)
Cooling Degree Days 18    
Growing Degree Days 32 (Base 50)    
Moisture  
Dew Point 73 °F    
Average Humidity 71    
Maximum Humidity 83    
Minimum Humidity 58    
Precipitation  
Precipitation 0.00 in - - ()
Sea Level Pressure  
Sea Level Pressure 29.70 in    
Wind  
Wind Speed 5 mph ()    
Max Wind Speed 12 mph    
Max Gust Speed -    
Visibility 6.2 miles    
Events      
Averages and records for this station are not official NWS values.
T = Trace of Precipitation, MM = Missing Value Source: Averaged Metar Reports

Daily Weather History Graph

Daily Weather History Graph

Search for Another Location

Airport or City:

Trip Planner

Search our weather history database for the weather conditions in past years. The results will help you decide how hot, cold, wet, or windy it might be!

Date:

Astronomy

Jul. 19, 2013 Rise Set
Actual Time 5:57 AM +07 6:44 PM +07
Civil Twilight 5:34 AM +07 7:06 PM +07
Nautical Twilight 5:07 AM +07 7:33 PM +07
Astronomical Twilight 4:40 AM +07 8:01 PM +07
Moon 3:14 PM +07 (7/19) 2:05 AM +07 (7/19)
Length of Visible Light 13h 32m
Length of Day
12h 46m
Waxing Gibbous, 82% of the Moon is Illuminated
Jul 19
Waxing Gibbous
Jul 23
Full
Jul 30
Last Quarter
Aug 7
New
Aug 14
First Quarter

Hourly Weather History & Observations

Time (+07) Temp. Heat Index Dew Point Humidity Pressure Visibility Wind Dir Wind Speed Gust Speed Precip Events Conditions
12:00 AM 78.8 °F - 73.4 °F 83% 29.71 in 5.0 mi NNW 3.5 mph - N/A   Mostly Cloudy
12:30 AM 78.8 °F - 73.4 °F 83% 29.71 in 6.2 mi NNW 3.5 mph - N/A   Mostly Cloudy
1:00 AM 78.8 °F - 71.6 °F 78% 29.68 in 6.2 mi NNW 4.6 mph - N/A   Mostly Cloudy
1:30 AM 78.8 °F - 71.6 °F 78% 29.68 in 6.2 mi NNW 4.6 mph - N/A   Mostly Cloudy
2:00 AM 80.6 °F 84.6 °F 71.6 °F 74% 29.68 in 6.2 mi NW 6.9 mph - N/A   Mostly Cloudy
2:30 AM 80.6 °F 84.6 °F 71.6 °F 74% 29.68 in 6.2 mi NW 3.5 mph - N/A   Mostly Cloudy
3:00 AM 80.6 °F 84.6 °F 71.6 °F 74% 29.68 in 6.2 mi WNW 3.5 mph - N/A   Mostly Cloudy
3:30 AM 80.6 °F 84.6 °F 71.6 °F 74% 29.65 in 6.2 mi NW 6.9 mph - N/A   Mostly Cloudy
4:00 AM 80.6 °F 84.6 °F 71.6 °F 74% 29.65 in 6.2 mi NW 4.6 mph - N/A   Mostly Cloudy
4:30 AM 80.6 °F 84.6 °F 71.6 °F 74% 29.65 in 6.2 mi NW 6.9 mph - N/A   Mostly Cloudy
5:00 AM 80.6 °F 84.6 °F 71.6 °F 74% 29.65 in 6.2 mi NNW 4.6 mph - N/A   Mostly Cloudy
5:30 AM 80.6 °F 84.6 °F 71.6 °F 74% 29.65 in 6.2 mi NW 6.9 mph - N/A   Mostly Cloudy
6:00 AM 80.6 °F 84.6 °F 71.6 °F 74% 29.65 in 6.2 mi SW 3.5 mph - N/A   Mostly Cloudy
6:30 AM 80.6 °F 85.4 °F 73.4 °F 79% 29.68 in 6.2 mi Calm Calm - N/A   Mostly Cloudy
7:00 AM 80.6 °F 85.4 °F 73.4 °F 79% 29.68 in 6.2 mi Calm Calm - N/A   Mostly Cloudy
7:30 AM 80.6 °F 85.4 °F 73.4 °F 79% 29.71 in 6.2 mi West 4.6 mph - N/A   Mostly Cloudy
8:00 AM 82.4 °F 88.2 °F 73.4 °F 74% 29.71 in 6.2 mi West 5.8 mph - N/A   Mostly Cloudy
8:30 AM 82.4 °F 87.2 °F 71.6 °F 70% 29.71 in 6.2 mi WNW 9.2 mph - N/A   Mostly Cloudy
9:00 AM 82.4 °F 87.2 °F 71.6 °F 70% 29.74 in 6.2 mi West 9.2 mph - N/A   Mostly Cloudy
9:30 AM 84.2 °F 89.6 °F 71.6 °F 66% 29.74 in 6.2 mi West 6.9 mph - N/A   Mostly Cloudy
10:00 AM 86.0 °F 93.4 °F 73.4 °F 66% 29.74 in 6.2 mi West 9.2 mph - N/A   Mostly Cloudy
10:30 AM 86.0 °F 91.8 °F 71.6 °F 62% 29.74 in 6.2 mi WNW 11.5 mph - N/A   Mostly Cloudy
11:00 AM 87.8 °F 93.8 °F 71.6 °F 58% 29.74 in 6.2 mi WNW 11.5 mph - N/A   Mostly Cloudy
11:30 AM 87.8 °F 93.8 °F 71.6 °F 58% 29.74 in 6.2 mi WNW 11.5 mph - N/A   Mostly Cloudy
12:00 PM 86.0 °F 91.8 °F 71.6 °F 62% 29.71 in 6.2 mi WNW 11.5 mph - N/A   Mostly Cloudy
12:30 PM 86.0 °F 91.8 °F 71.6 °F 62% 29.71 in 6.2 mi WNW 11.5 mph - N/A   Mostly Cloudy
1:00 PM 87.8 °F 95.6 °F 73.4 °F 62% 29.71 in 6.2 mi WNW 9.2 mph - N/A   Mostly Cloudy
1:30 PM 86.0 °F 93.4 °F 73.4 °F 66% 29.71 in 6.2 mi WNW 11.5 mph - N/A   Mostly Cloudy
2:00 PM 86.0 °F 91.8 °F 71.6 °F 62% 29.71 in 6.2 mi WNW 11.5 mph - N/A   Mostly Cloudy
2:30 PM 87.8 °F 95.6 °F 73.4 °F 62% 29.68 in 6.2 mi WNW 11.5 mph - N/A   Mostly Cloudy
3:00 PM 87.8 °F 95.6 °F 73.4 °F 62% 29.68 in 6.2 mi NW 9.2 mph - N/A   Mostly Cloudy
3:30 PM 86.0 °F 93.4 °F 73.4 °F 66% 29.68 in 6.2 mi NNW 9.2 mph - N/A   Mostly Cloudy
4:00 PM 86.0 °F 93.4 °F 73.4 °F 66% 29.65 in 6.2 mi NNW 6.9 mph - N/A   Mostly Cloudy
4:30 PM 86.0 °F 93.4 °F 73.4 °F 66% 29.65 in 6.2 mi WNW 6.9 mph - N/A   Mostly Cloudy
5:00 PM 86.0 °F 93.4 °F 73.4 °F 66% 29.65 in 6.2 mi NW 9.2 mph - N/A   Mostly Cloudy
5:30 PM 82.4 °F 88.2 °F 73.4 °F 74% 29.68 in 6.2 mi West 9.2 mph - N/A   Mostly Cloudy
6:00 PM 82.4 °F 88.2 °F 73.4 °F 74% 29.68 in 6.2 mi West 6.9 mph - N/A   Mostly Cloudy
6:30 PM 84.2 °F 90.9 °F 73.4 °F 70% 29.68 in 6.2 mi NW 4.6 mph - N/A   Mostly Cloudy
7:00 PM 84.2 °F 90.9 °F 73.4 °F 70% 29.68 in 6.2 mi NW 6.9 mph - N/A   Mostly Cloudy
7:30 PM 82.4 °F 88.2 °F 73.4 °F 74% 29.71 in 6.2 mi West 3.5 mph - N/A   Mostly Cloudy
8:00 PM 82.4 °F 88.2 °F 73.4 °F 74% 29.71 in 6.2 mi Calm Calm - N/A   Mostly Cloudy
8:30 PM 82.4 °F 88.2 °F 73.4 °F 74% 29.71 in 6.2 mi Calm Calm - N/A   Mostly Cloudy
9:00 PM 80.6 °F 85.4 °F 73.4 °F 79% 29.74 in 6.2 mi Calm Calm - N/A   Mostly Cloudy
9:30 PM 80.6 °F 85.4 °F 73.4 °F 79% 29.74 in 6.2 mi Calm Calm - N/A   Mostly Cloudy
10:00 PM 80.6 °F 85.4 °F 73.4 °F 79% 29.74 in 6.2 mi Calm Calm - N/A   Mostly Cloudy
10:30 PM 82.4 °F 87.2 °F 71.6 °F 70% 29.77 in 6.2 mi NW 4.6 mph - N/A   Mostly Cloudy
11:00 PM 80.6 °F 85.4 °F 73.4 °F 79% 29.77 in 6.2 mi West 3.5 mph - N/A   Mostly Cloudy
11:30 PM 80.6 °F 85.4 °F 73.4 °F 79% 29.77 in 6.2 mi WNW 4.6 mph - N/A   Mostly Cloudy